EW7144 Weather Reports


Display with metric or nautical units.
time (UTC)temp
F
wind
direction
speed
MPH
gust
MPH
rain 1hr
in
rain 24hr
in
rain mn
in
humidity
%
barometer
mb
20260507081906 63 351 9.0 17.0 0.06 0.50 0.49 91 1014.8
20260507081406 63 4 14.0 26.0 0.07 0.50 0.49 91 1014.9
20260507080905 63 3 13.0 25.0 0.06 0.49 0.48 91 1014.9
20260507080406 63 4 14.0 26.0 0.06 0.48 0.47 91 1014.8
20260507075906 63 17 8.0 21.0 0.05 0.46 0.46 91 1014.8
20260507075406 63 8 11.0 21.0 0.05 0.46 0.46 91 1015.0
20260507074906 63 11 16.0 28.0 0.03 0.45 0.44 91 1015.0
20260507073906 63 338 12.0 25.0 0.02 0.44 0.43 91 1014.9
20260507073406 63 14 10.0 23.0 0.03 0.43 0.43 91 1015.0
20260507072906 63 17 14.0 28.0 0.04 0.43 0.43 91 1015.0
20260507072406 63 14 14.0 24.0 0.05 0.43 0.43 91 1015.1
20260507071906 63 11 14.0 29.0 0.05 0.43 0.43 91 1014.9
20260507071406 63 6 14.0 32.0 0.06 0.43 0.42 91 1014.7
20260507070906 63 8 14.0 36.0 0.06 0.43 0.42 91 1014.8
20260507070406 63 7 9.0 20.0 0.07 0.42 0.41 91 1014.8
20260507065906 63 7 10.0 21.0 0.09 0.42 0.41 91 1014.8
20260507065406 63 3 9.0 26.0 0.11 0.42 0.41 91 1014.9
20260507064906 63 10 13.0 26.0 0.13 0.42 0.41 91 1014.9
20260507064406 63 10 7.0 26.0 0.15 0.42 0.41 91 1015.0
20260507063905 63 7 15.0 33.0 0.16 0.42 0.41 91 1015.1
20260507063406 63 12 14.0 26.0 0.16 0.40 0.39 91 1015.2
20260507062906 63 19 15.0 35.0 0.16 0.39 0.39 91 1015.3
20260507062405 63 5 13.0 28.0 0.16 0.39 0.38 91 1015.3
20260507061406 63 14 12.0 22.0 0.18 0.37 0.36 91 1015.2
20260507060406 63 20 8.0 23.0 0.16 0.35 0.34 91 1015.3
20260507055905 63 355 5.0 20.0 0.14 0.33 0.32 90 1015.4
20260507055408 63 1 5.0 21.0 0.13 0.31 0.30 90 1015.4
20260507054906 63 4 10.0 22.0 0.11 0.29 0.28 90 1015.5
20260507054406 63 1 9.0 20.0 0.09 0.27 0.26 90 1015.4
20260507053906 63 7 17.0 30.0 0.08 0.26 0.25 90 1015.6
20260507053406 63 359 9.0 22.0 0.06 0.24 0.24 90 1015.6
20260507052906 63 350 10.0 21.0 0.06 0.24 0.23 90 1015.7
20260507052406 63 354 14.0 24.0 0.05 0.23 0.22 90 1015.8
20260507051905 63 341 12.0 25.0 0.02 0.20 0.19 90 1015.8
20260507051406 63 6 6.0 17.0 0.02 0.19 0.18 90 1015.7
20260507050906 63 350 12.0 23.0 0.02 0.19 0.18 90 1015.7
20260507050406 63 1 11.0 18.0 0.02 0.19 0.18 90 1015.7
20260507045905 63 357 7.0 21.0 0.02 0.19 0.18 90 1015.6
20260507045406 63 13 9.0 16.0 0.01 0.18 0.17 90 1015.5
20260507044406 63 354 9.0 20.0 0.01 0.18 0.17 90 1015.5
20260507043906 63 359 11.0 24.0 0.01 0.18 0.17 90 1015.6
20260507043405 63 18 10.0 29.0 0.01 0.18 0.17 90 1015.6
20260507042906 63 20 8.0 17.0 0.01 0.18 0.17 89 1015.7
20260507042406 63 14 11.0 20.0 0.01 0.18 0.17 89 1015.8
20260507041906 63 6 16.0 26.0 0.00 0.17 0.17 89 1015.7
20260507041406 63 8 15.0 23.0 0.00 0.17 0.17 90 1015.8
20260507040905 63 357 12.0 22.0 0.00 0.17 0.17 89 1016.0
20260507040405 63 20 9.0 21.0 0.00 0.17 0.17 90 1016.1
20260507034906 63 359 10.0 20.0 0.00 0.17 0.17 90 1016.0
20260507034406 63 0 9.0 17.0 0.00 0.17 0.17 90 1016.1
20260507033906 63 7 9.0 17.0 0.00 0.17 0.17 90 1016.1
20260507033405 63 20 9.0 22.0 0.00 0.17 0.17 90 1016.2
20260507032406 63 358 14.0 26.0 0.00 0.17 0.17 90 1016.3
20260507031906 63 8 11.0 21.0 0.00 0.17 0.17 90 1016.3
20260507031405 63 13 10.0 17.0 0.00 0.17 0.17 90 1016.3
20260507030906 63 9 13.0 28.0 0.00 0.17 0.17 90 1016.4
20260507030406 63 0 6.0 21.0 0.00 0.17 0.17 90 1016.5
20260507025906 63 12 16.0 29.0 0.00 0.17 0.17 90 1016.6
20260507025405 63 14 10.0 31.0 0.00 0.17 0.17 90 1016.6
20260507024906 63 11 11.0 29.0 0.00 0.17 0.17 90 1016.7
20260507024405 63 8 12.0 24.0 0.00 0.17 0.17 90 1016.7
20260507023406 63 355 10.0 20.0 0.00 0.17 0.17 90 1017.0
20260507021906 63 16 11.0 22.0 0.00 0.17 0.17 90 1017.1
20260507021405 63 7 14.0 24.0 0.01 0.17 0.17 90 1017.4
20260507020906 63 8 9.0 24.0 0.02 0.17 0.17 90 1017.3
20260507020408 63 2 13.0 26.0 0.02 0.17 0.17 91 1017.3
20260507015406 63 9 11.0 22.0 0.02 0.17 0.17 91 1017.4
20260507014406 63 3 13.0 22.0 0.02 0.17 0.17 91 1017.7
20260507013906 63 358 14.0 30.0 0.02 0.17 0.17 91 1017.8
20260507013405 63 10 12.0 22.0 0.02 0.17 0.17 90 1017.8
20260507012905 63 10 14.0 25.0 0.02 0.17 0.17 90 1017.9
20260507011906 63 1 10.0 24.0 0.02 0.17 0.17 90 1018.0
20260507011405 63 3 7.0 20.0 0.02 0.17 0.16 91 1018.2
20260507010905 63 355 10.0 26.0 0.01 0.16 0.15 91 1018.3
20260507010405 63 0 8.0 20.0 0.01 0.16 0.15 91 1018.4
20260507005906 63 4 12.0 22.0 0.01 0.16 0.15 91 1018.6
20260507005406 63 359 7.0 18.0 0.01 0.15 0.14 91 1018.6
20260507004905 63 14 11.0 26.0 0.02 0.15 0.14 90 1018.7
20260507003906 63 24 9.0 18.0 0.04 0.15 0.14 91 1018.9
20260507003407 63 7 12.0 22.0 0.04 0.15 0.14 91 1018.9
20260507002906 63 13 16.0 26.0 0.04 0.15 0.14 91 1019.0
20260507002407 63 2 8.0 14.0 0.04 0.15 0.14 90 1019.1
20260507001907 63 16 14.0 23.0 0.04 0.15 0.14 90 1019.2
20260507001407 63 356 13.0 18.0 0.04 0.15 0.14 90 1019.2
20260507000906 63 16 11.0 20.0 0.04 0.15 0.14 90 1019.4
20260507000406 62 7 8.0 17.0 0.04 0.15 0.14 90 1019.4
20260506235906 62 8 12.0 26.0 0.04 0.15 0.14 90 1019.4
20260506235408 62 8 7.0 18.0 0.03 0.14 0.13 90 1019.6
20260506234906 63 344 10.0 20.0 0.02 0.13 0.13 90 1019.6
20260506234407 63 6 8.0 20.0 0.02 0.13 0.12 90 1019.7
20260506233906 63 6 12.0 18.0 0.00 0.11 0.10 90 1019.8
20260506232407 63 7 5.0 21.0 0.00 0.11 0.10 90 1019.8
20260506231906 63 14 8.0 15.0 0.00 0.11 0.10 89 1019.8
20260506231408 63 22 10.0 21.0 0.00 0.11 0.10 89 1020.1
20260506230906 63 10 9.0 16.0 0.00 0.11 0.10 89 1020.0
20260506230406 63 23 8.0 14.0 0.00 0.11 0.10 89 1020.0
20260506225906 63 6 5.0 15.0 0.00 0.11 0.10 89 1020.1
20260506224906 63 5 6.0 13.0 0.00 0.11 0.10 89 1020.1
20260506224406 63 6 9.0 14.0 0.00 0.11 0.10 89 1020.2
20260506223907 63 10 9.0 16.0 0.00 0.11 0.10 89 1020.2
20260506223407 63 3 11.0 17.0 0.00 0.11 0.10 89 1020.3
20260506222907 63 17 7.0 14.0 0.00 0.11 0.10 89 1020.3
20260506222408 63 6 9.0 22.0 0.00 0.11 0.10 89 1020.4
20260506220406 63 4 10.0 18.0 0.00 0.12 0.10 89 1020.5
20260506215906 63 359 8.0 16.0 0.00 0.12 0.10 89 1020.6
20260506215406 63 356 7.0 22.0 0.00 0.12 0.10 90 1020.6
20260506214906 63 6 9.0 15.0 0.00 0.12 0.10 90 1020.7
20260506214406 63 7 6.0 13.0 0.00 0.12 0.10 90 1020.8
20260506213906 63 0 6.0 14.0 0.00 0.12 0.10 90 1020.9
20260506212906 63 356 7.0 14.0 0.00 0.12 0.10 90 1021.0
20260506212406 63 11 7.0 14.0 0.00 0.12 0.10 90 1021.0
20260506211906 63 0 12.0 18.0 0.00 0.12 0.10 90 1021.1
20260506211407 63 12 9.0 20.0 0.00 0.12 0.10 90 1021.0
20260506210908 63 355 12.0 17.0 0.00 0.12 0.10 90 1021.1
20260506210407 63 7 9.0 18.0 0.00 0.12 0.10 90 1021.1
20260506205905 63 6 7.0 12.0 0.00 0.12 0.10 90 1021.1
20260506205407 63 16 6.0 14.0 0.00 0.12 0.10 90 1021.1
20260506204906 63 1 6.0 12.0 0.00 0.12 0.10 90 1021.2
20260506204406 63 16 7.0 16.0 0.00 0.12 0.10 90 1021.2
20260506203906 63 358 7.0 17.0 0.00 0.12 0.10 90 1021.3
20260506203406 63 8 5.0 16.0 0.00 0.12 0.10 90 1021.3
20260506202906 63 21 10.0 17.0 0.00 0.12 0.10 90 1021.2
20260506201906 63 14 6.0 12.0 0.00 0.12 0.10 90 1021.3
20260506201406 63 95 6.0 17.0 0.00 0.12 0.10 90 1021.3
20260506200906 63 13 8.0 15.0 0.00 0.12 0.10 90 1021.3
20260506194906 63 10 5.0 16.0 0.00 0.12 0.10 91 1021.3
20260506194406 63 0 8.0 17.0 0.00 0.12 0.10 91 1021.2
20260506193906 63 358 8.0 14.0 0.00 0.12 0.10 90 1021.3
20260506192906 62 13 10.0 20.0 0.00 0.12 0.10 90 1021.2
20260506191906 62 6 13.0 23.0 0.00 0.12 0.10 90 1021.2
20260506191406 62 2 12.0 18.0 0.00 0.12 0.10 91 1021.1
20260506190906 62 3 8.0 20.0 0.00 0.12 0.10 91 1021.1
20260506190405 62 6 9.0 18.0 0.00 0.12 0.10 90 1021.2
20260506185906 62 10 12.0 20.0 0.00 0.12 0.10 90 1021.1
20260506185406 62 9 7.0 23.0 0.00 0.12 0.10 90 1021.1
20260506184906 62 20 12.0 20.0 0.00 0.12 0.10 90 1021.1
20260506183405 62 9 9.0 14.0 0.00 0.12 0.10 90 1021.2
20260506182905 62 9 8.0 16.0 0.00 0.12 0.10 90 1021.3
20260506182406 61 8 9.0 15.0 0.00 0.12 0.10 90 1021.3
20260506181905 61 11 6.0 15.0 0.00 0.12 0.10 90 1021.4
20260506180905 61 13 5.0 12.0 0.00 0.12 0.10 91 1021.4
20260506180405 62 351 5.0 10.0 0.00 0.12 0.10 91 1021.4
20260506174905 62 13 9.0 16.0 0.00 0.12 0.10 91 1021.5
20260506173406 62 357 3.0 17.0 0.00 0.12 0.10 91 1021.4
20260506172906 62 8 6.0 13.0 0.00 0.12 0.10 91 1021.4
20260506172406 62 13 10.0 16.0 0.00 0.12 0.10 91 1021.4
20260506171905 62 13 9.0 15.0 0.00 0.12 0.10 91 1021.5
20260506171406 62 3 10.0 18.0 0.00 0.12 0.10 91 1021.6
20260506170906 62 5 12.0 22.0 0.00 0.12 0.10 91 1021.7
20260506170406 62 5 5.0 14.0 0.00 0.12 0.10 91 1021.6
20260506165906 62 4 10.0 15.0 0.00 0.12 0.10 91 1021.6
20260506165406 62 12 9.0 15.0 0.00 0.12 0.10 91 1021.7
20260506164906 62 14 7.0 15.0 0.01 0.12 0.10 91 1021.7
20260506163905 62 0 9.0 20.0 0.02 0.12 0.10 91 1021.8
20260506163406 62 12 11.0 15.0 0.03 0.12 0.10 91 1021.9
20260506162905 62 3 7.0 17.0 0.04 0.12 0.10 91 1021.9
20260506162406 62 11 6.0 17.0 0.05 0.12 0.10 91 1022.0
20260506161906 62 17 6.0 14.0 0.06 0.12 0.10 90 1022.0
20260506161406 62 1 10.0 18.0 0.09 0.12 0.10 90 1022.1
20260506160906 61 356 4.0 16.0 0.09 0.12 0.10 91 1022.2
20260506160405 61 2 7.0 17.0 0.09 0.12 0.10 90 1022.2
20260506155906 61 17 6.0 15.0 0.10 0.12 0.10 90 1022.3
20260506155405 61 16 8.0 13.0 0.10 0.12 0.10 90 1022.3
20260506154405 62 24 9.0 16.0 0.09 0.11 0.09 90 1022.5
20260506153905 62 355 10.0 20.0 0.08 0.09 0.08 90 1022.5
20260506153406 62 350 4.0 12.0 0.07 0.09 0.07 90 1022.6
20260506152906 62 358 2.0 12.0 0.06 0.08 0.06 90 1022.6
20260506152405 62 6 7.0 17.0 0.06 0.07 0.06 90 1022.7
20260506151905 62 13 7.0 13.0 0.04 0.06 0.04 90 1022.8
20260506150905 62 12 6.0 12.0 0.01 0.02 0.01 90 1022.8
20260506150405 62 13 3.0 10.0 0.01 0.02 0.01 90 1022.9
20260506145906 62 18 5.0 13.0 0.00 0.02 0.00 90 1023.1
20260506145406 62 25 7.0 12.0 0.00 0.02 0.00 90 1023.2
20260506144906 62 23 2.0 9.0 0.00 0.02 0.00 89 1023.3
20260506144405 62 4 3.0 8.0 0.00 0.02 0.00 89 1023.4
20260506143905 62 6 7.0 10.0 0.00 0.02 0.00 89 1023.5
20260506143406 62 0 2.0 5.0 0.00 0.02 0.00 89 1023.6
20260506142905 62 19 4.0 9.0 0.00 0.02 0.00 89 1023.6
20260506142406 62 4 4.0 9.0 0.00 0.02 0.00 89 1023.8
20260506141906 62 18 5.0 12.0 0.00 0.02 0.00 89 1023.8
20260506141406 62 14 4.0 8.0 0.00 0.02 0.00 89 1023.9
20260506140906 62 21 4.0 12.0 0.00 0.02 0.00 89 1023.9
20260506135905 62 25 3.0 13.0 0.00 0.02 0.00 89 1024.0
20260506135406 62 29 5.0 10.0 0.00 0.02 0.00 89 1024.1
20260506134906 62 7 5.0 9.0 0.00 0.02 0.00 89 1024.1
20260506133406 62 4 1.0 5.0 0.00 0.02 0.00 89 1024.2
20260506132906 62 5 3.0 6.0 0.00 0.02 0.00 89 1024.2
20260506132406 62 8 2.0 8.0 0.00 0.02 0.00 89 1024.3
20260506131906 62 14 3.0 9.0 0.00 0.02 0.00 89 1024.3
20260506130906 62 358 1.0 2.0 0.00 0.02 0.00 89 1024.4
20260506130405 62 16 0.0 1.0 0.00 0.02 0.00 89 1024.4
20260506125905 62 16 1.0 2.0 0.01 0.02 0.00 89 1024.4
20260506125405 62 1 2.0 3.0 0.01 0.02 0.00 89 1024.5
20260506124405 62 338 0.0 1.0 0.01 0.02 0.00 89 1024.5
20260506123906 62 349 0.0 1.0 0.01 0.02 0.00 89 1024.5
20260506123406 62 346 1.0 3.0 0.01 0.02 0.00 89 1024.6
20260506122406 62 345 2.0 3.0 0.01 0.02 0.00 89 1024.6
20260506121905 62 16 2.0 3.0 0.01 0.02 0.00 89 1024.7
20260506121406 62 349 0.0 3.0 0.01 0.02 0.00 89 1024.7
20260506120905 62 0 3.0 5.0 0.01 0.02 0.00 90 1024.7
20260506120405 62 13 3.0 7.0 0.01 0.02 0.00 90 1024.7
20260506115405 62 356 1.0 9.0 0.00 0.01 0.01 90 1024.7
20260506114906 62 24 1.0 3.0 0.00 0.01 0.01 90 1024.7
20260506114405 62 22 1.0 3.0 0.00 0.01 0.01 90 1024.8
20260506113905 62 0 2.0 3.0 0.00 0.01 0.01 90 1024.8
20260506113406 62 354 1.0 5.0 0.00 0.01 0.01 90 1024.9
20260506112405 62 5 1.0 3.0 0.00 0.01 0.01 90 1025.0
20260506111905 62 355 2.0 3.0 0.00 0.01 0.01 90 1025.0
20260506111407 62 8 1.0 3.0 0.00 0.01 0.01 90 1025.0
20260506110906 62 9 1.0 2.0 0.00 0.01 0.01 89 1025.0
20260506110406 62 18 0.0 0.0 0.00 0.01 0.01 89 1025.1
20260506105407 62 18 0.0 2.0 0.00 0.01 0.01 89 1025.1
20260506104907 62 10 0.0 1.0 0.00 0.01 0.01 89 1025.2
20260506104406 62 10 1.0 3.0 0.00 0.01 0.01 89 1025.2
20260506103907 62 4 0.0 2.0 0.00 0.01 0.01 89 1025.2
20260506103405 62 4 0.0 1.0 0.00 0.01 0.01 89 1025.2
20260506102907 62 4 0.0 3.0 0.00 0.01 0.01 89 1025.3
20260506102406 62 356 0.0 3.0 0.00 0.01 0.01 89 1025.3
20260506101908 62 352 0.0 2.0 0.00 0.01 0.01 89 1025.3
20260506100906 62 357 0.0 3.0 0.00 0.01 0.01 89 1025.3
20260506095907 62 1 2.0 7.0 0.00 0.01 0.01 90 1025.2
20260506095407 62 22 4.0 6.0 0.00 0.01 0.01 90 1025.3
20260506094906 62 3 1.0 5.0 0.00 0.01 0.01 90 1025.2
20260506094406 62 356 1.0 3.0 0.00 0.01 0.01 90 1025.3
20260506093906 62 18 2.0 3.0 0.00 0.01 0.01 90 1025.2
20260506093408 62 9 1.0 3.0 0.00 0.01 0.01 90 1025.2
20260506092906 62 2 1.0 7.0 0.00 0.01 0.01 90 1025.2
20260506092406 62 28 1.0 5.0 0.00 0.01 0.01 90 1025.2
20260506091907 62 33 1.0 3.0 0.00 0.01 0.01 90 1025.2
20260506091406 62 350 1.0 3.0 0.00 0.01 0.01 90 1025.3
20260506090905 62 334 0.0 2.0 0.00 0.01 0.01 90 1025.2
20260506090405 62 330 0.0 2.0 0.00 0.01 0.01 89 1025.3
20260506085905 62 17 1.0 2.0 0.00 0.01 0.01 89 1025.2
20260506085405 62 17 1.0 1.0 0.00 0.01 0.01 89 1025.2
20260506084406 62 18 1.0 1.0 0.00 0.01 0.01 89 1025.2
20260506083907 62 18 2.0 3.0 0.00 0.01 0.01 89 1025.2
20260506083407 62 353 1.0 3.0 0.00 0.01 0.01 89 1025.2
20260506082907 62 12 2.0 3.0 0.00 0.01 0.01 89 1025.2
20260506082406 62 23 2.0 3.0 0.00 0.01 0.01 89 1025.3